Weather History for Minden, LA

Change the Weather History Date:

Wednesday, February 13, 2013

  Actual Average (KBAD) Record (KBAD)
Temperature  
Mean Temperature 43 °F -  
Max Temperature 51 °F 58 °F 78 °F (2000)
Min Temperature 35 °F 40 °F 23 °F (2006)
Degree Days  
Heating Degree Days 22    
Moisture  
Dew Point 38 °F    
Average Humidity 79    
Maximum Humidity 95    
Minimum Humidity 57    
Precipitation  
Precipitation 0.00 in - - ()
Sea Level Pressure  
Sea Level Pressure 30.04 in    
Wind  
Wind Speed 6 mph (WNW)    
Max Wind Speed 13 mph    
Max Gust Speed 20 mph    
Visibility 10 miles    
Events      
Averages and records for this station are not official NWS values.
T = Trace of Precipitation, MM = Missing Value Source: NWS Daily Summary

Daily Weather History Graph

Daily Weather History Graph

Search for Another Location

Airport:

Trip Planner

Search our weather history database for the weather conditions in past years. The results will help you decide how hot, cold, wet, or windy it might be!

Date:

Astronomy

Feb. 13, 2013 Rise Set
Actual Time 6:57 AM CST 5:57 PM CST
Civil Twilight 6:32 AM CST 6:22 PM CST
Nautical Twilight 6:03 AM CST 6:51 PM CST
Astronomical Twilight 5:35 AM CST 7:20 PM CST
Moon 8:42 AM CST (2/13) 9:43 PM CST (2/13)
Length of Visible Light 11h 50m
Length of Day
10h 59m
Waxing Crescent, 14% of the Moon is Illuminated
Feb 13
Waxing Crescent
Feb 17
First Quarter
Feb 25
Full
Mar 4
Last Quarter
Mar 11
New

Hourly Weather History & Observations

Time (CST) Temp. Windchill Dew Point Humidity Pressure Visibility Wind Dir Wind Speed Gust Speed Precip Events Conditions
12:15 AM 46.2 °F 44.1 °F 44.4 °F 93% 29.91 in 10.0 mi West 4.6 mph - N/A   Overcast
12:35 AM 46.4 °F 42.9 °F 44.6 °F 93% 29.90 in 10.0 mi NW 6.9 mph - N/A   Overcast
12:55 AM 46.4 °F 40.7 °F 43.9 °F 91% 29.90 in 10.0 mi WNW 12.7 mph 18.4 mph N/A   Overcast
1:15 AM 46.4 °F 42.4 °F 43.5 °F 90% 29.91 in 10.0 mi WNW 8.1 mph 16.1 mph N/A   Overcast
1:35 AM 46.2 °F 41.7 °F 43.2 °F 89% 29.92 in 10.0 mi West 9.2 mph - N/A   Overcast
1:55 AM 45.9 °F 42.3 °F 42.8 °F 89% 29.92 in 10.0 mi WNW 6.9 mph - N/A   Overcast
2:15 AM 45.7 °F 41.5 °F 42.8 °F 90% 29.92 in 10.0 mi WNW 8.1 mph - N/A   Overcast
2:35 AM 45.5 °F 41.3 °F 42.3 °F 88% 29.93 in 10.0 mi WNW 8.1 mph - N/A   Overcast
2:55 AM 45.5 °F 40.8 °F 42.3 °F 88% 29.95 in 10.0 mi WNW 9.2 mph - N/A   Overcast
3:15 AM 45.5 °F 42.5 °F 41.9 °F 87% 29.95 in 10.0 mi West 5.8 mph - N/A   Overcast
3:35 AM 45.0 °F 41.2 °F 41.2 °F 87% 29.96 in 10.0 mi WNW 6.9 mph - N/A   Overcast
3:55 AM 44.8 °F 41.0 °F 41.0 °F 87% 29.96 in 10.0 mi West 6.9 mph - N/A   Overcast
4:15 AM 44.6 °F 40.2 °F 41.0 °F 87% 29.97 in 10.0 mi WNW 8.1 mph - N/A   Overcast
4:35 AM 44.6 °F 42.2 °F 40.8 °F 87% 29.99 in 10.0 mi West 4.6 mph - N/A   Overcast
4:55 AM 44.2 °F 41.8 °F 40.6 °F 87% 30.00 in 10.0 mi West 4.6 mph - N/A   Overcast
5:15 AM 44.2 °F 41.0 °F 40.8 °F 88% 30.01 in 10.0 mi West 5.8 mph - N/A   Overcast
5:35 AM 44.2 °F 39.2 °F 40.8 °F 88% 30.00 in 10.0 mi West 9.2 mph - N/A   Overcast
5:55 AM 44.1 °F 41.5 °F 40.5 °F 87% 30.00 in 10.0 mi West 4.6 mph - N/A   Overcast
6:15 AM 44.1 °F 38.6 °F 39.9 °F 85% 30.01 in 10.0 mi WNW 10.4 mph - N/A   Overcast
6:35 AM 43.7 °F 38.1 °F 39.2 °F 84% 30.02 in 10.0 mi WNW 10.4 mph 16.1 mph N/A   Overcast
6:55 AM 43.0 °F 36.8 °F 38.5 °F 84% 30.03 in 10.0 mi WNW 11.5 mph 19.6 mph N/A   Overcast
7:15 AM 42.8 °F 38.0 °F 38.1 °F 84% 30.04 in 10.0 mi WNW 8.1 mph 17.3 mph N/A   Overcast
7:35 AM 42.8 °F 38.0 °F 37.2 °F 81% 30.06 in 10.0 mi WNW 8.1 mph - N/A   Overcast
7:55 AM 42.6 °F 39.0 °F 36.9 °F 80% 30.06 in 10.0 mi NW 5.8 mph - N/A   Overcast
8:15 AM 42.8 °F 38.6 °F 36.9 °F 80% 30.07 in 10.0 mi NW 6.9 mph - N/A   Overcast
8:35 AM 43.0 °F 39.5 °F 36.9 °F 79% 30.08 in 10.0 mi WNW 5.8 mph - N/A   Overcast
8:55 AM 43.3 °F 38.6 °F 36.9 °F 78% 30.09 in 10.0 mi WNW 8.1 mph - N/A   Overcast
9:15 AM 43.5 °F 38.9 °F 35.8 °F 74% 30.11 in 10.0 mi NNW 8.1 mph 16.1 mph N/A   Overcast
9:35 AM 44.1 °F 39.5 °F 36.7 °F 75% 30.11 in 10.0 mi NNW 8.1 mph - N/A   Overcast
9:55 AM 44.6 °F 39.2 °F 36.7 °F 74% 30.11 in 10.0 mi NNW 10.4 mph - N/A   Overcast
10:15 AM 44.6 °F 40.2 °F 37.0 °F 75% 30.11 in 10.0 mi NW 8.1 mph - N/A   Overcast
10:55 AM 45.7 °F 43.4 °F 37.4 °F 73% 30.12 in 10.0 mi WNW 4.6 mph - N/A   Overcast
11:15 AM 46.6 °F - 37.8 °F 71% 30.11 in 10.0 mi NNW 10.4 mph - N/A   Overcast
11:35 AM 47.7 °F - 37.6 °F 68% 30.11 in 10.0 mi NNW 5.8 mph - N/A   Overcast
11:55 AM 49.3 °F - 37.2 °F 63% 30.10 in 10.0 mi NW 11.5 mph - N/A   Overcast
12:15 PM 49.3 °F - 37.0 °F 63% 30.09 in 10.0 mi NW 9.2 mph - N/A   Overcast
12:35 PM 50.7 °F - 38.5 °F 63% 30.08 in 10.0 mi NNW 4.6 mph - N/A   Overcast
12:55 PM 48.9 °F - 37.6 °F 65% 30.08 in 10.0 mi West 5.8 mph - N/A   Overcast
1:15 PM 49.6 °F - 37.4 °F 63% 30.07 in 10.0 mi West 6.9 mph - N/A   Overcast
1:35 PM 49.5 °F - 37.8 °F 64% 30.06 in 10.0 mi West 5.8 mph - N/A   Overcast
1:55 PM 50.0 °F - 37.4 °F 62% 30.05 in 10.0 mi WNW 4.6 mph - N/A   Overcast
2:15 PM 50.9 °F - 36.5 °F 58% 30.04 in 10.0 mi West 4.6 mph - N/A   Overcast
2:35 PM 50.9 °F - 37.9 °F 61% 30.04 in 10.0 mi NW 8.1 mph - N/A   Overcast
2:55 PM 50.5 °F - 37.4 °F 61% 30.05 in 10.0 mi NW 6.9 mph - N/A   Overcast
3:15 PM 50.5 °F - 37.8 °F 62% 30.05 in 10.0 mi WNW 6.9 mph - N/A   Overcast
3:35 PM 50.2 °F - 37.4 °F 62% 30.05 in 10.0 mi WNW 8.1 mph - N/A   Overcast
3:55 PM 50.5 °F - 37.4 °F 61% 30.05 in 10.0 mi WNW 6.9 mph - N/A   Mostly Cloudy
4:15 PM 51.4 °F - 36.7 °F 57% 30.05 in 10.0 mi WNW 6.9 mph - N/A   Scattered Clouds
4:35 PM 50.9 °F - 37.2 °F 59% 30.05 in 10.0 mi West 8.1 mph - N/A   Mostly Cloudy
4:55 PM 48.7 °F - 36.9 °F 64% 30.06 in 10.0 mi NW 5.8 mph - N/A   Mostly Cloudy
5:15 PM 47.3 °F - 36.9 °F 67% 30.06 in 10.0 mi NW 4.6 mph - N/A   Scattered Clouds
5:35 PM 47.3 °F - 36.9 °F 67% 30.07 in 10.0 mi WNW 4.6 mph - N/A   Clear
5:55 PM 46.2 °F 45.0 °F 36.5 °F 69% 30.07 in 10.0 mi WNW 3.5 mph - N/A   Clear
6:15 PM 45.1 °F 43.7 °F 36.9 °F 73% 30.06 in 10.0 mi West 3.5 mph - N/A   Clear
6:35 PM 44.6 °F - 37.2 °F 75% 30.06 in 10.0 mi Calm Calm - N/A   Clear
6:55 PM 42.4 °F - 37.2 °F 82% 30.07 in 10.0 mi Calm Calm - N/A   Clear
7:15 PM 41.4 °F - 37.0 °F 85% 30.07 in 10.0 mi Calm Calm - N/A   Clear
7:35 PM 40.1 °F - 36.5 °F 87% 30.07 in 10.0 mi Calm Calm - N/A   Clear
7:55 PM 39.2 °F - 36.5 °F 90% 30.07 in 10.0 mi Calm Calm - N/A   Clear
8:15 PM 39.0 °F - 36.3 °F 90% 30.07 in 10.0 mi Calm Calm - N/A   Clear
8:55 PM 39.0 °F - 35.8 °F 88% 30.08 in 10.0 mi Calm Calm - N/A   Clear
9:15 PM 37.6 °F - 35.2 °F 91% 30.09 in 10.0 mi Calm Calm - N/A   Clear
9:35 PM 36.9 °F - 35.1 °F 93% 30.09 in 10.0 mi Calm Calm - N/A   Clear
9:55 PM 36.7 °F - 34.9 °F 93% 30.09 in 10.0 mi Calm Calm - N/A   Clear
10:15 PM 35.6 °F - 34.0 °F 94% 30.10 in 10.0 mi Calm Calm - N/A   Clear
10:35 PM 35.6 °F - 34.0 °F 94% 30.10 in 10.0 mi Calm Calm - N/A   Clear
10:55 PM 35.1 °F - 33.6 °F 94% 30.10 in 10.0 mi Calm Calm - N/A   Clear
11:15 PM 35.1 °F - 33.8 °F 95% 30.10 in 7.0 mi Calm Calm - N/A   Clear
11:35 PM 35.2 °F - 34.0 °F 95% 30.09 in 7.0 mi Calm Calm - N/A   Clear
11:55 PM 35.2 °F - 33.8 °F 94% 30.10 in 10.0 mi Calm Calm - N/A   Clear